Location: Andershausen
(51.8462°N, 9.8595°E)
Time: 06:20:07
(UTC+00:00)

Meteor 2-3 Rocket - Pass Details

Date: 18 November 2025
Orbit: 841 x 884 km, 81.2° (Epoch: 11 December)

Event Time Altitude Azimuth Distance (km) Brightness Sun altitude
Rises 16:45:28 0° 351° (N) 3,472 6.8 -12.1°
Reaches altitude 10° 16:48:14 10° 2° (N) 2,523 6.0 -12.5°
Maximum altitude 16:53:16 31° 63° (ENE) 1,480 4.4 -13.3°
Drops below altitude 10° 16:58:13 10° 125° (SE) 2,483 5.8 -14.0°
Sets 17:00:54 0° 136° (SE) 3,408 6.6 -14.4°
